Погода в Хирардоте

Колумбия     4°17′50″N   74°48′03″W
темп.,
°C
ветер,
м/с
пор.,
м/с
влажн.,
%
обл.,
%
осадки,
мм/ч
давл.,
гПа
погр.,
м
6 марта, сб
сб601:00+23в118740 4.1 101428
04:00+23ююз1187100 0.7 101324
07:00+23юз118690 1.1 101581
10:00+28ююз116823 2.3 1015566
13:00+32з115212 2.6 10101179
16:00+32сз11480 0.0 10081219
19:00+28вюв01605 0.4 101224
22:00+25ссв227563 0.4 101557
7 марта, вс
вс701:00+24ссз118081 1.3 101438
04:00+22юв1190100 2.5 101438
07:00+23всв1186100 2.6 101674
10:00+26всв0074100 0.1 1016526
13:00+32зюз115461 0.2 10121135
16:00+32зюз215253 0.3 10101361
19:00+27зюз116661 2.2 101324
22:00+24ссв2488100 4.9 1015137
8 марта, пн
пн801:00+24з1188100 5.3 101429
04:00+23ю129199 0.4 101444
07:00+23в118899 2.5 101575
10:00+28зюз2270100 2.1 1016730
13:00+31юз335782 4.5 10121199
16:00+31зюз225417 0.3 10101320
19:00+27ю126758 0.8 101345
22:00+24ю017899 1.3 101524
9 марта, вт
вт901:00+23св118298 1.8 101425
04:00+22в118699 1.2 101323
07:00+23ююз118299 1.7 101579
10:00+27зюз226962 0.2 1015618
13:00+32ю015381 0.8 10111281
16:00+32с224996 0.0 10081520
19:00+27всв226598 0.1 101226
22:00+25св2376100 1.4 101462
10 марта, ср
ср1001:00+23св118197 2.5 101324
04:00+23зюз1188100 2.8 101332
07:00+22ююв1189100 6.6 101480
10:00+23ю2388100 1.5 1015327
13:00+27юз017396 2.6 1012639
16:00+29юз016254 0.1 1010868
19:00+25ююз117277 0.6 101224
22:00+23с0184100 3.3 101524